When you browse on this site, cookies collect data to enhance your experience and personalize the content and advertising you see.
Visit our Privacy Policy to learn more. By continuing to use the site, you agree to this use of cookies and data.
  • In United Kingdom
  • List of Countries
  • For 7 days
  • Water Temperature
  • Weather Map
  • Weather Widgets
  • user-avatar
    Login

    Hourly Weather Daru

    Today, 20 September, Friday

    Time Temperature Precipitation Wind Pressure Humidity
    00:00 +26°C° 0 mm 5 mps 758 mmHg 86%
    01:00 +25°C° 0 mm 5 mps 758 mmHg 87%
    02:00 +25°C° 0.1 mm 5 mps 758 mmHg 87%
    03:00 +26°C° 0.1 mm 5 mps 757 mmHg 87%
    04:00 +26°C° 0 mm 5 mps 757 mmHg 86%
    05:00 +26°C° 0.1 mm 5 mps 757 mmHg 86%
    06:00 +26°C° 0.1 mm 5 mps 758 mmHg 85%
    07:00 +26°C° 0.1 mm 5 mps 758 mmHg 85%
    08:00 +27°C° 0.1 mm 6 mps 759 mmHg 84%
    09:00 +27°C° 0.1 mm 6 mps 759 mmHg 82%
    10:00 +27°C° 0 mm 6 mps 760 mmHg 82%
    11:00 +28°C° 0.2 mm 6 mps 759 mmHg 81%
    12:00 +28°C° 0.2 mm 7 mps 758 mmHg 79%
    13:00 +28°C° 0.2 mm 7 mps 757 mmHg 78%
    14:00 +28°C° 0 mm 7 mps 757 mmHg 78%
    15:00 +28°C° 0 mm 7 mps 757 mmHg 77%
    16:00 +28°C° 0 mm 7 mps 757 mmHg 77%
    17:00 +28°C° 0 mm 7 mps 757 mmHg 79%
    18:00 +27°C° 0 mm 6 mps 757 mmHg 81%
    19:00 +27°C° 0 mm 6 mps 758 mmHg 83%
    20:00 +27°C° 0 mm 6 mps 758 mmHg 83%
    21:00 +27°C° 0 mm 6 mps 758 mmHg 84%
    22:00 +27°C° 0 mm 5 mps 759 mmHg 84%
    23:00 +27°C° 0.1 mm 5 mps 758 mmHg 86%

    Tomorrow, 21 September, Saturday

    Time Temperature Precipitation Wind Pressure Humidity
    00:00 +26°C° 0.1 mm 5 mps 758 mmHg 87%
    01:00 +26°C° 0.1 mm 5 mps 758 mmHg 88%
    02:00 +26°C° 0.1 mm 6 mps 758 mmHg 89%
    03:00 +26°C° 0.1 mm 6 mps 758 mmHg 89%
    04:00 +26°C° 0.1 mm 7 mps 758 mmHg 89%
    05:00 +26°C° 0 mm 7 mps 758 mmHg 87%
    06:00 +26°C° 0 mm 7 mps 758 mmHg 86%
    07:00 +27°C° 0 mm 8 mps 758 mmHg 84%
    08:00 +27°C° 0 mm 8 mps 758 mmHg 81%
    09:00 +28°C° 0 mm 7 mps 759 mmHg 77%
    10:00 +29°C° 0 mm 7 mps 759 mmHg 73%
    11:00 +29°C° 0.1 mm 7 mps 759 mmHg 72%
    12:00 +29°C° 0.1 mm 7 mps 758 mmHg 71%
    13:00 +29°C° 0.1 mm 7 mps 757 mmHg 70%
    14:00 +29°C° 0.1 mm 7 mps 757 mmHg 72%
    15:00 +29°C° 0.1 mm 7 mps 757 mmHg 74%
    16:00 +28°C° 0.1 mm 7 mps 757 mmHg 76%
    17:00 +28°C° 0.2 mm 7 mps 757 mmHg 79%
    18:00 +27°C° 0.2 mm 6 mps 758 mmHg 83%
    19:00 +26°C° 0.2 mm 6 mps 758 mmHg 87%
    20:00 +26°C° 0.2 mm 7 mps 758 mmHg 87%
    21:00 +26°C° 0.2 mm 7 mps 759 mmHg 88%
    22:00 +26°C° 0.2 mm 7 mps 759 mmHg 88%
    23:00 +26°C° 0.2 mm 7 mps 758 mmHg 89%

    Day after tomorrow, 22 September, Sunday

    Time Temperature Precipitation Wind Pressure Humidity
    00:00 +26°C° 0.2 mm 6 mps 758 mmHg 89%
    01:00 +26°C° 0.2 mm 6 mps 758 mmHg 90%
    02:00 +26°C° 0.3 mm 6 mps 758 mmHg 90%
    03:00 +26°C° 0.3 mm 6 mps 758 mmHg 90%
    04:00 +26°C° 0.3 mm 7 mps 758 mmHg 90%
    05:00 +26°C° 0.4 mm 7 mps 758 mmHg 90%
    06:00 +26°C° 0.4 mm 6 mps 758 mmHg 90%
    07:00 +26°C° 0.4 mm 6 mps 759 mmHg 90%
    08:00 +27°C° 0.8 mm 7 mps 759 mmHg 90%
    09:00 +27°C° 0.8 mm 7 mps 759 mmHg 89%
    10:00 +27°C° 0.8 mm 7 mps 759 mmHg 89%
    11:00 +27°C° 0.8 mm 7 mps 759 mmHg 89%
    12:00 +27°C° 0.8 mm 8 mps 758 mmHg 89%
    13:00 +27°C° 0.8 mm 8 mps 758 mmHg 90%
    14:00 +27°C° 0.6 mm 8 mps 758 mmHg 90%
    15:00 +27°C° 0.6 mm 8 mps 758 mmHg 89%
    16:00 +27°C° 0.6 mm 8 mps 758 mmHg 89%
    17:00 +27°C° 0.6 mm 8 mps 758 mmHg 90%
    18:00 +27°C° 0.6 mm 8 mps 758 mmHg 90%
    19:00 +27°C° 0.6 mm 8 mps 758 mmHg 90%
    20:00 +27°C° 1.5 mm 8 mps 758 mmHg 90%
    21:00 +27°C° 1.5 mm 8 mps 759 mmHg 91%
    22:00 +26°C° 1.5 mm 7 mps 759 mmHg 91%
    23:00 +26°C° 1.5 mm 7 mps 759 mmHg 92%

    23 September, Monday

    Time Temperature Precipitation Wind Pressure Humidity
    00:00 +26°C° 1.5 mm 7 mps 759 mmHg 92%
    01:00 +26°C° 1.5 mm 8 mps 758 mmHg 92%
    02:00 +26°C° 1.7 mm 7 mps 758 mmHg 92%
    03:00 +26°C° 1.7 mm 7 mps 758 mmHg 92%
    04:00 +26°C° 1.7 mm 7 mps 758 mmHg 92%
    05:00 +26°C° 4.2 mm 7 mps 758 mmHg 92%
    06:00 +26°C° 4.2 mm 6 mps 759 mmHg 93%
    07:00 +26°C° 4.2 mm 6 mps 759 mmHg 94%
    08:00 +25°C° 10.7 mm 5 mps 759 mmHg 95%
    09:00 +25°C° 10.7 mm 4 mps 760 mmHg 96%
    10:00 +24°C° 10.7 mm 3 mps 760 mmHg 97%
    11:00 +25°C° 9.1 mm 3 mps 760 mmHg 97%
    12:00 +25°C° 9.1 mm 3 mps 759 mmHg 96%
    13:00 +25°C° 9.1 mm 3 mps 759 mmHg 96%
    14:00 +25°C° 2 mm 4 mps 759 mmHg 95%
    15:00 +26°C° 2 mm 5 mps 758 mmHg 94%
    16:00 +26°C° 2 mm 6 mps 758 mmHg 94%
    17:00 +26°C° 0.4 mm 7 mps 758 mmHg 93%
    18:00 +26°C° 0.4 mm 8 mps 759 mmHg 92%
    19:00 +26°C° 0.4 mm 8 mps 759 mmHg 90%
    20:00 +26°C° 0.1 mm 8 mps 759 mmHg 90%
    21:00 +26°C° 0.1 mm 8 mps 759 mmHg 90%
    22:00 +26°C° 0.1 mm 7 mps 760 mmHg 90%
    23:00 +26°C° 0.1 mm 7 mps 759 mmHg 91%

    24 September, Tuesday

    Time Temperature Precipitation Wind Pressure Humidity
    00:00 +26°C° 0.1 mm 7 mps 759 mmHg 91%
    01:00 +26°C° 0.1 mm 7 mps 759 mmHg 91%
    02:00 +26°C° 0.2 mm 7 mps 759 mmHg 91%
    03:00 +26°C° 0.2 mm 7 mps 758 mmHg 91%
    04:00 +26°C° 0.2 mm 6 mps 758 mmHg 91%
    05:00 +26°C° 0.2 mm 6 mps 759 mmHg 92%
    06:00 +26°C° 0.2 mm 6 mps 759 mmHg 92%
    07:00 +26°C° 0.2 mm 6 mps 759 mmHg 92%
    08:00 +26°C° 0.2 mm 6 mps 759 mmHg 91%
    09:00 +27°C° 0.2 mm 6 mps 759 mmHg 90%
    10:00 +27°C° 0.2 mm 6 mps 760 mmHg 89%
    11:00 +27°C° 0.1 mm 6 mps 759 mmHg 86%
    12:00 +28°C° 0.1 mm 6 mps 759 mmHg 83%
    13:00 +29°C° 0.1 mm 6 mps 758 mmHg 80%
    14:00 +28°C° 0.1 mm 6 mps 758 mmHg 81%
    15:00 +28°C° 0.1 mm 6 mps 757 mmHg 81%
    16:00 +28°C° 0.1 mm 6 mps 757 mmHg 82%
    17:00 +27°C° 0 mm 6 mps 757 mmHg 84%
    18:00 +27°C° 0 mm 6 mps 758 mmHg 86%
    19:00 +26°C° 0 mm 6 mps 758 mmHg 88%
    20:00 +26°C° 0 mm 6 mps 759 mmHg 88%
    21:00 +26°C° 0 mm 6 mps 759 mmHg 88%
    22:00 +26°C° 0 mm 6 mps 760 mmHg 88%
    23:00 +26°C° 0.1 mm 6 mps 760 mmHg 88%

    25 September, Wednesday

    Time Temperature Precipitation Wind Pressure Humidity
    00:00 +26°C° 0.1 mm 6 mps 759 mmHg 88%
    01:00 +26°C° 0.1 mm 7 mps 759 mmHg 88%
    02:00 +26°C° 0.1 mm 6 mps 759 mmHg 88%
    03:00 +26°C° 0.1 mm 6 mps 758 mmHg 88%
    04:00 +26°C° 0.1 mm 6 mps 758 mmHg 88%
    05:00 +26°C° 0.1 mm 6 mps 758 mmHg 88%
    06:00 +26°C° 0.1 mm 6 mps 759 mmHg 89%
    07:00 +26°C° 0.1 mm 6 mps 759 mmHg 89%
    08:00 +27°C° 0.1 mm 6 mps 759 mmHg 85%
    09:00 +28°C° 0.1 mm 6 mps 760 mmHg 82%
    10:00 +29°C° 0.1 mm 6 mps 760 mmHg 78%
    11:00 +29°C° 0.1 mm 6 mps 759 mmHg 78%
    12:00 +29°C° 0.1 mm 6 mps 759 mmHg 77%
    13:00 +29°C° 0.1 mm 6 mps 758 mmHg 77%
    14:00 +28°C° 0.1 mm 6 mps 758 mmHg 79%
    15:00 +28°C° 0.1 mm 6 mps 757 mmHg 80%
    16:00 +28°C° 0.1 mm 7 mps 757 mmHg 81%
    17:00 +27°C° 0.1 mm 7 mps 758 mmHg 83%
    18:00 +27°C° 0.1 mm 6 mps 758 mmHg 85%
    19:00 +27°C° 0.1 mm 6 mps 758 mmHg 86%
    20:00 +27°C° 0.1 mm 6 mps 759 mmHg 87%
    21:00 +27°C° 0.1 mm 6 mps 759 mmHg 87%
    22:00 +27°C° 0.1 mm 6 mps 759 mmHg 87%
    23:00 +27°C° 0.2 mm 6 mps 759 mmHg 88%
    Show more